TimeEST,TemperatureF,Dew PointF,Humidity,Sea Level PressureIn,VisibilityMPH,Wind Direction,Wind SpeedMPH,Gust SpeedMPH,PrecipitationIn,Events,Conditions,WindDirDegrees,DateUTC
12:02 AM,51.8,50.0,94,29.95,2.5,Calm,Calm,-,N/A,Rain,Rain,0,2013-01-02 05:02:00
12:06 AM,51.8,51.8,100,29.95,2.0,Calm,Calm,-,N/A,Rain,Light Rain,0,2013-01-02 05:06:00
12:10 AM,51.8,51.8,100,29.95,2.5,Calm,Calm,-,N/A,Rain,Light Rain,0,2013-01-02 05:10:00
12:15 AM,51.8,50.0,94,29.95,2.5,Calm,Calm,-,N/A,Rain,Light Rain,0,2013-01-02 05:15:00
12:19 AM,51.8,50.0,94,29.94,3.0,Calm,Calm,-,N/A,,Light Drizzle,0,2013-01-02 05:19:00
12:39 AM,51.8,51.8,100,29.94,3.0,Calm,Calm,-,N/A,Rain,Light Rain,0,2013-01-02 05:39:00
12:40 AM,51.8,51.8,100,29.94,3.0,Calm,Calm,-,N/A,Rain,Light Rain,0,2013-01-02 05:40:00
12:55 AM,51.4,51.1,99,29.93,5.0,Calm,Calm,-,0.05,,Light Drizzle,0,2013-01-02 05:55:00
12:59 AM,51.8,51.8,100,29.93,5.0,Calm,Calm,-,N/A,,Light Drizzle,0,2013-01-02 05:59:00
1:07 AM,51.8,51.8,100,29.93,6.0,Calm,Calm,-,N/A,,Light Drizzle,0,2013-01-02 06:07:00
1:24 AM,51.8,51.8,100,29.94,4.0,Calm,Calm,-,N/A,Rain,Light Rain,0,2013-01-02 06:24:00
1:26 AM,51.8,51.8,100,29.93,3.0,Calm,Calm,-,N/A,Rain,Rain,0,2013-01-02 06:26:00
1:29 AM,51.8,51.8,100,29.93,2.5,Calm,Calm,-,N/A,Rain,Rain,0,2013-01-02 06:29:00
1:30 AM,51.8,51.8,100,29.93,2.5,Calm,Calm,-,N/A,Rain,Rain,0,2013-01-02 06:30:00
1:39 AM,51.8,51.8,100,29.94,3.0,Calm,Calm,-,N/A,Rain,Light Rain,0,2013-01-02 06:39:00
1:42 AM,51.8,50.0,94,29.94,2.5,Calm,Calm,-,N/A,Rain,Light Rain,0,2013-01-02 06:42:00
1:48 AM,51.8,50.0,94,29.94,2.5,Calm,Calm,-,N/A,Rain,Light Rain,0,2013-01-02 06:48:00
1:55 AM,51.1,50.9,99,29.94,2.5,Calm,Calm,-,0.06,Rain,Rain,0,2013-01-02 06:55:00
2:02 AM,51.8,50.0,94,29.94,2.0,Calm,Calm,-,N/A,Rain,Light Rain,0,2013-01-02 07:02:00
2:05 AM,51.8,50.0,94,29.94,1.8,Calm,Calm,-,N/A,Rain,Light Rain,0,2013-01-02 07:05:00
2:13 AM,51.8,50.0,94,29.93,2.0,Calm,Calm,-,N/A,Rain,Light Rain,0,2013-01-02 07:13:00
2:18 AM,51.8,50.0,94,29.94,1.8,Calm,Calm,-,N/A,Rain,Light Rain,0,2013-01-02 07:18:00
2:26 AM,51.8,51.8,100,29.94,2.0,Calm,Calm,-,N/A,Rain,Light Rain,0,2013-01-02 07:26:00
2:31 AM,51.8,51.8,100,29.94,1.8,Calm,Calm,-,N/A,Rain,Rain,0,2013-01-02 07:31:00
2:34 AM,50.0,50.0,100,29.94,1.5,Calm,Calm,-,N/A,Rain,Rain,0,2013-01-02 07:34:00
2:43 AM,51.8,51.8,100,29.94,1.8,Calm,Calm,-,N/A,Rain,Light Rain,0,2013-01-02 07:43:00
2:45 AM,51.8,51.8,100,29.94,2.0,Calm,Calm,-,N/A,Rain,Light Rain,0,2013-01-02 07:45:00
2:48 AM,51.8,51.8,100,29.94,2.5,Calm,Calm,-,N/A,Rain,Light Rain,0,2013-01-02 07:48:00
2:49 AM,51.8,51.8,100,29.94,3.0,Calm,Calm,-,N/A,Rain,Light Rain,0,2013-01-02 07:49:00
2:51 AM,51.8,51.8,100,29.94,3.0,Calm,Calm,-,N/A,Rain,Light Rain,0,2013-01-02 07:51:00
2:55 AM,51.3,51.3,100,29.94,4.0,Calm,Calm,-,0.08,Rain,Light Rain,0,2013-01-02 07:55:00
3:12 AM,51.8,51.8,100,29.95,5.0,North,4.6,-,N/A,Rain,Rain,360,2013-01-02 08:12:00
3:26 AM,51.8,51.8,100,29.95,4.0,Calm,Calm,-,N/A,Rain,Rain,0,2013-01-02 08:26:00
3:29 AM,51.8,51.8,100,29.94,4.0,Calm,Calm,-,N/A,Rain,Light Rain,0,2013-01-02 08:29:00
3:32 AM,51.8,51.8,100,29.95,5.0,Calm,Calm,-,N/A,Rain,Light Rain,0,2013-01-02 08:32:00
3:55 AM,51.3,51.3,100,29.94,9.0,Calm,Calm,-,0.08,Rain,Light Rain,0,2013-01-02 08:55:00
4:27 AM,51.8,51.8,100,29.90,5.0,ESE,6.9,-,N/A,Rain,Light Rain,120,2013-01-02 09:27:00
4:34 AM,51.8,51.8,100,29.92,6.0,ENE,3.5,-,N/A,,Light Drizzle,60,2013-01-02 09:34:00
4:38 AM,51.8,51.8,100,29.93,7.0,NNE,4.6,-,N/A,,Light Drizzle,30,2013-01-02 09:38:00
4:55 AM,51.1,50.9,99,29.94,10.0,NNE,5.8,-,0.02,Rain,Light Rain,20,2013-01-02 09:55:00
5:23 AM,51.8,51.8,100,29.93,10.0,ENE,4.6,-,N/A,,Overcast,60,2013-01-02 10:23:00
5:33 AM,51.8,50.0,94,29.94,10.0,NE,6.9,-,N/A,,Overcast,50,2013-01-02 10:33:00
5:42 AM,51.8,50.0,94,29.93,10.0,ENE,5.8,-,N/A,,Overcast,60,2013-01-02 10:42:00
5:50 AM,51.8,50.0,94,29.95,10.0,NE,4.6,-,N/A,,Overcast,40,2013-01-02 10:50:00
5:55 AM,51.1,50.5,98,29.95,10.0,NNE,5.8,-,0.01,,Overcast,30,2013-01-02 10:55:00
5:58 AM,51.8,50.0,94,29.95,10.0,NNE,5.8,-,N/A,,Overcast,30,2013-01-02 10:58:00
6:05 AM,51.8,50.0,94,29.96,10.0,NNE,5.8,-,N/A,,Light Drizzle,30,2013-01-02 11:05:00
6:12 AM,51.8,50.0,94,29.96,9.0,NE,8.1,-,N/A,Rain,Light Rain,40,2013-01-02 11:12:00
6:31 AM,50.0,50.0,100,29.97,5.0,NE,8.1,-,N/A,Rain,Light Rain,40,2013-01-02 11:31:00
6:52 AM,50.0,50.0,100,29.99,6.0,NE,10.4,-,N/A,Rain,Light Rain,40,2013-01-02 11:52:00
6:55 AM,50.2,49.3,97,29.99,6.0,NE,8.1,-,0.03,Rain,Light Rain,40,2013-01-02 11:55:00
7:12 AM,48.2,48.2,100,30.01,8.0,NE,16.1,21.9,N/A,,Light Drizzle,40,2013-01-02 12:12:00
7:18 AM,48.2,46.4,93,30.01,10.0,NE,12.7,-,N/A,,Light Drizzle,40,2013-01-02 12:18:00
7:19 AM,48.2,46.4,93,30.01,10.0,NE,13.8,-,N/A,,Overcast,40,2013-01-02 12:19:00
7:22 AM,48.2,46.4,93,30.01,10.0,NE,12.7,-,N/A,,Overcast,50,2013-01-02 12:22:00
7:23 AM,48.2,46.4,93,30.01,10.0,NE,12.7,-,N/A,,Overcast,50,2013-01-02 12:23:00
7:24 AM,48.2,46.4,93,30.01,10.0,NE,12.7,-,N/A,,Overcast,50,2013-01-02 12:24:00
7:28 AM,48.2,46.4,93,30.01,10.0,NE,12.7,-,N/A,,Overcast,50,2013-01-02 12:28:00
7:39 AM,48.2,46.4,93,30.02,9.0,NE,15.0,-,N/A,,Overcast,50,2013-01-02 12:39:00
7:51 AM,46.4,44.6,93,30.02,9.0,ENE,11.5,-,N/A,,Overcast,60,2013-01-02 12:51:00
7:55 AM,46.8,45.5,95,30.02,8.0,ENE,11.5,-,0.00,,Overcast,60,2013-01-02 12:55:00
8:02 AM,46.4,44.6,93,30.03,9.0,NE,8.1,-,N/A,,Overcast,50,2013-01-02 13:02:00
8:06 AM,46.4,44.6,93,30.03,10.0,NE,9.2,-,N/A,,Overcast,50,2013-01-02 13:06:00
8:14 AM,46.4,46.4,100,30.04,10.0,NE,8.1,-,N/A,,Overcast,40,2013-01-02 13:14:00
8:22 AM,46.4,44.6,93,30.04,10.0,NE,9.2,-,N/A,,Overcast,50,2013-01-02 13:22:00
8:25 AM,46.4,44.6,93,30.05,10.0,NE,8.1,-,N/A,,Overcast,40,2013-01-02 13:25:00
8:43 AM,46.4,44.6,93,30.04,10.0,NE,6.9,-,N/A,,Overcast,50,2013-01-02 13:43:00
8:55 AM,46.6,45.0,94,30.04,10.0,ENE,6.9,-,N/A,,Overcast,60,2013-01-02 13:55:00
9:03 AM,46.4,44.6,93,30.04,10.0,NE,6.9,-,N/A,,Overcast,50,2013-01-02 14:03:00
9:04 AM,46.4,44.6,93,30.04,10.0,ENE,5.8,-,N/A,,Overcast,60,2013-01-02 14:04:00
9:06 AM,46.4,44.6,93,30.04,10.0,ENE,5.8,-,N/A,,Overcast,70,2013-01-02 14:06:00
9:55 AM,47.3,45.0,92,30.06,10.0,NNE,4.6,-,N/A,,Overcast,30,2013-01-02 14:55:00
10:24 AM,48.2,46.4,93,30.09,10.0,North,4.6,-,N/A,,Overcast,10,2013-01-02 15:24:00
10:55 AM,47.8,45.3,91,30.09,10.0,NE,8.1,-,N/A,,Overcast,40,2013-01-02 15:55:00
11:13 AM,48.2,44.6,87,30.08,10.0,NNE,6.9,-,N/A,,Overcast,20,2013-01-02 16:13:00
11:29 AM,48.2,44.6,87,30.08,10.0,NNE,9.2,-,N/A,,Overcast,30,2013-01-02 16:29:00
11:36 AM,48.2,44.6,87,30.08,10.0,North,9.2,-,N/A,,Overcast,10,2013-01-02 16:36:00
11:37 AM,48.2,44.6,87,30.08,10.0,NNE,8.1,-,N/A,,Overcast,20,2013-01-02 16:37:00
11:41 AM,48.2,44.6,87,30.08,10.0,NNE,10.4,-,N/A,,Overcast,20,2013-01-02 16:41:00
11:43 AM,48.2,44.6,87,30.08,10.0,North,9.2,-,N/A,,Overcast,10,2013-01-02 16:43:00
11:55 AM,48.4,44.2,86,30.08,10.0,North,10.4,-,N/A,,Overcast,360,2013-01-02 16:55:00
12:55 PM,48.2,42.8,82,30.06,10.0,NNE,9.2,-,N/A,,Overcast,20,2013-01-02 17:55:00
1:55 PM,48.6,41.5,77,30.06,10.0,NNE,8.1,-,N/A,,Overcast,30,2013-01-02 18:55:00
2:14 PM,48.2,41.0,76,30.05,10.0,NE,5.8,-,N/A,,Mostly Cloudy,50,2013-01-02 19:14:00
2:17 PM,50.0,41.0,71,30.06,10.0,NNE,9.2,-,N/A,,Mostly Cloudy,30,2013-01-02 19:17:00
2:31 PM,50.0,41.0,71,30.07,10.0,NNE,4.6,-,N/A,,Mostly Cloudy,20,2013-01-02 19:31:00
2:38 PM,50.0,41.0,71,30.07,10.0,NE,8.1,-,N/A,,Mostly Cloudy,40,2013-01-02 19:38:00
2:55 PM,50.4,39.7,67,30.07,10.0,NNE,8.1,-,N/A,,Mostly Cloudy,20,2013-01-02 19:55:00
3:01 PM,51.8,41.0,67,30.07,10.0,NE,8.1,-,N/A,,Mostly Cloudy,40,2013-01-02 20:01:00
3:04 PM,51.8,41.0,67,30.07,10.0,NE,6.9,-,N/A,,Mostly Cloudy,40,2013-01-02 20:04:00
3:05 PM,51.8,41.0,67,30.07,10.0,NE,5.8,-,N/A,,Mostly Cloudy,40,2013-01-02 20:05:00
3:12 PM,51.8,41.0,67,30.07,10.0,North,8.1,-,N/A,,Mostly Cloudy,10,2013-01-02 20:12:00
3:14 PM,51.8,41.0,67,30.07,10.0,North,8.1,-,N/A,,Mostly Cloudy,360,2013-01-02 20:14:00
3:16 PM,51.8,41.0,67,30.08,10.0,NNE,9.2,-,N/A,,Mostly Cloudy,30,2013-01-02 20:16:00
3:30 PM,50.0,39.2,66,30.08,10.0,NE,11.5,-,N/A,,Mostly Cloudy,50,2013-01-02 20:30:00
3:39 PM,50.0,39.2,66,30.08,10.0,NNE,9.2,-,N/A,,Mostly Cloudy,30,2013-01-02 20:39:00
3:55 PM,49.5,38.7,66,30.09,10.0,NNE,4.6,-,N/A,,Scattered Clouds,20,2013-01-02 20:55:00
3:59 PM,50.0,39.2,66,30.09,10.0,NNE,8.1,-,N/A,,Mostly Cloudy,20,2013-01-02 20:59:00
4:03 PM,50.0,39.2,66,30.09,10.0,NNE,8.1,-,N/A,,Mostly Cloudy,20,2013-01-02 21:03:00
4:14 PM,50.0,39.2,66,30.10,10.0,NNE,5.8,-,N/A,,Mostly Cloudy,30,2013-01-02 21:14:00
4:55 PM,47.7,41.2,78,30.11,10.0,ENE,9.2,-,N/A,,Mostly Cloudy,60,2013-01-02 21:55:00
4:56 PM,48.2,41.0,76,30.11,10.0,ENE,9.2,-,N/A,,Mostly Cloudy,60,2013-01-02 21:56:00
5:55 PM,45.3,39.4,80,30.13,10.0,East,6.9,-,N/A,,Mostly Cloudy,80,2013-01-02 22:55:00
6:55 PM,44.2,39.4,83,30.15,10.0,ENE,6.9,-,N/A,,Overcast,70,2013-01-02 23:55:00
7:55 PM,43.5,39.7,87,30.18,10.0,NE,4.6,-,N/A,,Mostly Cloudy,50,2013-01-03 00:55:00
8:55 PM,43.2,39.0,85,30.18,10.0,East,3.5,-,N/A,,Overcast,80,2013-01-03 01:55:00
9:55 PM,43.0,38.8,85,30.17,10.0,East,3.5,-,N/A,,Overcast,100,2013-01-03 02:55:00
10:55 PM,42.6,37.9,83,30.20,10.0,ESE,4.6,-,N/A,,Overcast,110,2013-01-03 03:55:00
11:55 PM,42.3,37.9,85,30.20,10.0,Calm,Calm,-,N/A,,Overcast,0,2013-01-03 04:55:00